Regional Weather Roundup
Issued by NWS

Home | Current Version | Previous Version | Graphics & Text | Print | Product List | Glossary On
Versions: 1 2 3 4 5 6 7 8 9 10 11 12 13 14 15 16 17 18 19 20 21 22 23 24 25 26 27 28 29 30 31 32 33 34 35 36 37 38 39 40 41 42 43 44 45 46 47 48 49 50
000
ASUS43 KFSD 041902
RWRSD

WEATHER ROUNDUP FOR SOUTH DAKOTA
NATIONAL WEATHER SERVICE SIOUX FALLS SD
200 PM CDT MON MAY 04 2015

NOTE: "FAIR" INDICATES FEW OR NO CLOUDS BELOW 12,000 FEET WITH NO
SIGNIFICANT WEATHER AND/OR OBSTRUCTIONS TO VISIBILITY.


SDZ001>005-009-010-012>017-042000-
NORTHWEST AND NORTH CENTRAL SOUTH DAKOTA

CITY           SKY/WX    TMP DP  RH WIND       PRES   REMARKS
BUFFALO          N/A     50  39  66 S24G35    30.11F
FAITH            N/A     49  42  77 SW5       30.23S
MOBRIDGE       CLOUDY    65  26  23 S8        30.19F
$$

SDZ012>016-024>037-041>051-057-063-072>074-042000-
SOUTHWEST AND SOUTH CENTRAL SOUTH DAKOTA

CITY           SKY/WX    TMP DP  RH WIND       PRES   REMARKS
RAPID CTY ARPT CLOUDY    50  39  66 SE5       30.21F
PIERRE         CLOUDY    63  22  20 E12       30.20F
CUSTER         CLOUDY    40  30  67 SE8       30.22S
ELLSWORTH AFB  CLOUDY    50  40  68 S6        30.20F
PHILIP         LGT RAIN  58  28  32 E7        30.21F
PINE RIDGE     LGT RAIN  52  37  56 E12       30.19F
WINNER         MOCLDY    68  19  15 NE18      30.18F
$$

SDZ004>011-016>023-039-040-042000-
NORTHEAST SOUTH DAKOTA

CITY           SKY/WX    TMP DP  RH WIND       PRES   REMARKS
ABERDEEN       PTSUNNY   70  21  15 MISG      30.20F
WATERTOWN      PTSUNNY   66  26  22 E9        30.20S
BROOKINGS      SUNNY     66  27  22 NE10G17   30.18F
SISSETON         N/A     67  24  19 VRB3      30.20F
$$

SDZ017-020-022-023-036>040-048>070-042000-
SOUTHEAST SOUTH DAKOTA

CITY           SKY/WX    TMP DP  RH WIND       PRES   REMARKS
SIOUX FALLS    PTSUNNY   71  30  21 E10       30.15F
HURON          PTSUNNY   72  25  17 NE12      30.16F
MITCHELL       MOSUNNY   72  24  16 E8G22     30.16S
YANKTON        PTSUNNY   70  34  26 NE16G22   30.13F
$$

ABBREVIATIONS USED IN REMARKS
   TC - TEMPERATURE IN CELSIUS
  WCI - WIND CHILL INDEX
   HX - HEAT INDEX
  VSB - VISIBILITY



USA.gov is the U.S. government's official web portal to all federal, state and local government web resources and services.